Wind_Gust
7 11 16 19 8 3 5 8 9 9 4 8 6 5 9 8 18 14 11 4 6 13 10 14 13 13 21 22 20 14 12 14 11 14 18 20 20 21 21 21 19 19 18 15 18 18 20 21 19 13 15 17 15 16 14 19 21 21 22 18 18 17 15 15 16 14 15 15 12 9 11 10 9 9 6 6 5 6 6 6 7 7 7 6 6 7
5 11 20 11 6 6 7 8 5 4 3 5 7 7 17 8 21 17 14 7 13 11 11 7 7 15 22 23 21 14 17 18 18 17 20 22 19 21 25 22 19 17 14 17 15 15 15 14 14 13 16 15 18 16 17 21 24 21 20 21 18 17 16 15 16 16 14 13 15 13 12 9 10 9 10 8 6 7 7 6 7 8 7 7 7 8
7 21 12 3 10 6 5 4 4 6 8 4 8 9 9 22 10 17 12 7 5 4 14 9 9 19 24 25 20 15 16 18 26 28 30 28 23 25 24 24 21 20 21 20 19 17 19 18 16 18 18 16 16 16 18 16 18 21 20 19 18 18 17 14 13 14 15 10 9 11 11 10 9 5 6 8 6 6 8 7 7 9 10 10 9 9
12 16 18 11 4 5 7 6 4 4 3 7 5 6 20 8 8 19 5 5 5 10 12 10 11 22 23 15 16 17 14 9 16 25 27 31 30 28 34 33 27 26 30 26 25 24 20 19 19 16 14 14 15 15 16 17 20 20 19 17 18 18 16 14 13 13 9 10 7 6 10 8 8 9 7 5 4 5 6 5 6 8 10 10 10 8
21 15 5 9 7 8 10 9 6 7 13 6 8 11 16 8 12 15 16 10 10 9 7 7 9 19 11 13 18 10 5 12 17 12 18 16 24 29 20 17 28 34 28 26 27 24 22 21 23 22 16 15 17 20 21 21 23 21 20 19 19 19 18 15 15 14 12 11 8 9 9 9 10 9 8 8 4 3 4 5 5 9 7 9 9 8
15 21 5 6 8 7 9 10 12 10 12 10 10 17 14 12 13 14 13 9 14 21 5 3 15 16 12 13 17 11 5 11 13 22 18 24 25 21 25 23 17 19 20 27 31 29 25 25 21 15 15 16 17 19 19 19 19 18 18 18 17 16 14 14 12 13 15 15 14 14 15 14 10 11 11 11 13 8 8 9 4 4 5 7 7 7
21 9 10 10 9 8 9 15 10 13 14 8 19 14 18 18 16 18 16 4 8 14 8 6 5 24 17 16 9 11 6 8 10 24 21 24 24 22 23 21 21 21 20 15 13 18 21 21 22 19 18 19 18 17 13 15 17 17 17 17 16 15 13 11 11 12 13 12 12 12 12 11 14 15 10 7 8 11 7 6 6 6 4 6 9 6
11 6 7 6 7 9 8 13 13 17 11 17 12 12 12 14 14 16 12 12 18 7 11 3 9 10 20 16 4 9 12 10 11 14 21 24 24 23 20 21 23 23 22 23 23 20 19 23 24 23 19 19 19 14 13 15 15 18 18 16 14 12 13 11 11 11 11 14 12 12 10 11 13 14 13 10 9 5 7 8 5 4 3 4 6 9
6 6 8 9 7 9 16 20 10 17 20 21 9 13 12 14 16 12 12 12 9 2 21 8 2 6 11 14 8 5 13 8 8 15 19 21 24 24 22 22 22 22 22 20 22 25 25 25 21 19 19 15 11 12 15 15 15 16 14 13 11 12 11 11 10 11 9 10 12 13 13 13 10 11 12 9 7 8 7 7 4 4 3 3 2 3
10 10 10 12 11 14 18 17 12 20 13 22 17 5 9 5 6 9 10 7 4 6 15 15 5 9 16 12 12 8 10 8 11 13 16 22 28 29 26 21 18 18 15 14 15 21 24 19 17 15 12 10 7 8 8 9 12 12 12 12 11 10 10 11 10 10 8 10 12 12 13 15 11 11 10 9 10 9 7 8 5 4 4 2 3 3
13 4 10 10 12 16 13 19 16 20 28 3 6 8 9 4 4 3 4 8 4 9 17 13 6 9 14 9 4 7 7 7 5 6 8 16 15 15 17 21 22 18 16 16 15 13 13 12 12 12 14 11 5 6 8 10 11 11 11 10 10 8 9 9 9 8 9 8 10 12 13 14 13 11 13 12 10 9 7 9 6 5 3 2 3 3
12 10 11 12 11 13 9 17 8 21 18 7 11 11 6 9 11 3 8 7 10 17 14 13 9 11 15 10 11 9 8 12 23 23 22 24 28 24 18 19 19 16 19 17 14 17 15 14 12 12 13 13 9 6 9 9 11 12 10 11 11 8 9 9 9 9 10 10 10 9 12 12 13 12 12 14 13 11 11 9 8 5 7 4 4 4
11 15 8 7 9 14 11 9 14 4 7 13 7 7 11 12 7 10 8 11 12 21 12 2 9 7 13 8 8 18 15 6 14 19 30 27 24 21 18 17 20 20 17 16 16 17 15 14 16 15 14 12 10 11 11 13 12 11 11 12 12 9 10 11 8 9 9 10 10 10 11 11 12 12 10 11 11 9 12 10 9 8 8 6 7 4
17 8 5 11 7 12 10 13 9 6 4 13 14 12 10 9 7 8 10 8 11 12 12 3 5 11 7 8 10 17 17 10 14 8 9 18 24 18 18 18 17 17 17 17 17 15 15 15 16 15 15 15 14 11 12 11 11 10 11 10 11 10 10 10 8 8 9 9 9 8 12 12 12 10 9 8 11 8 10 11 10 10 9 9 7 5
5 15 15 9 17 9 14 19 20 15 13 19 9 19 16 17 17 11 13 15 14 14 8 7 7 11 4 10 16 16 9 12 12 14 10 9 11 14 15 16 15 14 10 14 15 15 16 16 14 15 16 16 15 12 10 9 9 8 10 10 11 10 10 10 10 8 9 10 8 8 10 12 9 11 9 7 8 10 10 7 10 7 6 8 4 6
9 17 16 10 7 4 9 8 9 7 7 6 9 13 13 9 14 13 13 7 6 5 4 12 9 3 8 5 11 14 12 16 17 19 20 19 13 13 17 18 16 13 13 13 14 13 10 10 10 11 13 14 13 11 9 9 9 10 10 9 10 13 13 12 10 8 10 9 9 8 9 9 9 9 9 8 6 6 8 8 9 7 4 5 6 2
4 15 7 12 2 7 12 5 9 9 14 10 8 10 14 13 15 7 5 3 3 11 6 5 6 8 13 6 10 15 12 15 13 15 18 21 22 21 22 19 17 14 14 14 12 11 11 10 9 11 12 12 11 12 11 9 6 7 9 10 11 10 9 11 10 11 9 10 9 7 8 9 9 9 9 9 6 6 6 7 7 8 5 4 4 6
6 15 10 6 16 14 7 7 4 6 12 14 7 12 5 8 11 16 16 7 5 10 12 4 4 8 8 13 8 11 11 13 13 11 15 17 19 24 19 18 20 21 19 15 14 9 9 9 8 7 7 5 6 7 7 8 8 9 10 11 13 13 14 11 12 11 11 11 10 9 8 7 8 10 8 8 8 6 8 5 6 6 8 5 5 6
4 15 15 9 11 16 8 2 5 5 2 11 12 6 9 9 6 9 12 5 5 7 8 4 2 6 7 10 8 6 10 12 15 17 15 15 14 18 22 20 19 20 15 13 13 11 9 10 8 7 7 7 8 10 11 12 13 12 11 11 12 15 14 14 12 10 10 9 10 9 10 10 9 8 9 8 8 7 8 6 5 6 7 6 6 8
4 7 21 9 3 8 8 10 6 10 13 2 3 4 3 13 8 8 16 12 13 5 5 8 4 10 9 8 3 8 7 11 11 17 17 15 17 17 17 13 12 10 11 11 11 10 9 11 10 7 7 8 10 11 12 13 15 16 14 12 10 12 10 10 14 15 13 10 14 11 11 8 10 10 11 10 10 9 8 8 8 7 6 8 7 6
7 3 10 16 11 9 6 7 4 5 6 9 7 8 7 6 7 11 5 6 12 17 14 14 10 13 9 4 3 7 8 11 12 16 17 14 14 16 15 11 11 12 12 12 11 10 11 10 10 8 7 7 6 7 8 11 13 12 14 18 20 23 23 19 12 13 15 14 11 14 13 12 11 10 10 9 8 9 8 7 7 7 7 6 6 7
6 5 7 14 16 8 12 9 7 10 8 6 8 5 6 10 9 5 13 5 6 12 14 15 16 10 8 5 3 8 11 13 12 12 13 11 12 12 11 9 11 10 11 11 10 9 8 8 9 8 7 7 8 7 10 13 14 14 19 23 24 25 19 16 10 11 11 7 10 14 13 11 10 12 11 12 9 10 9 8 8 8 6 7 5 6
7 7 5 11 11 12 8 11 7 14 20 14 14 13 8 5 9 13 14 9 7 5 8 7 11 8 6 1 7 10 13 14 15 13 13 12 10 12 12 11 11 12 11 10 10 10 8 7 6 7 7 7 7 7 10 15 21 23 22 23 16 17 15 14 10 11 15 17 13 9 7 9 9 10 11 12 9 9 9 7 6 6 9 7 6 3
13 13 6 11 13 12 9 10 7 7 13 11 9 6 13 9 7 11 12 13 13 3 4 5 7 8 3 5 6 12 13 14 15 12 14 13 11 14 14 14 14 13 12 11 11 10 7 7 6 7 7 8 8 11 16 20 19 17 19 15 12 12 12 12 13 11 13 14 13 12 13 10 8 7 7 9 7 8 6 7 6 5 6 6 4 6
15 10 8 6 9 10 6 7 10 11 15 9 6 9 6 7 4 8 9 4 11 12 12 14 14 10 3 5 7 12 17 17 17 14 17 17 17 17 16 15 14 14 15 15 15 13 11 10 8 7 7 9 12 12 12 14 14 15 15 17 17 14 12 10 13 20 15 13 12 12 11 8 9 11 9 9 8 6 4 3 3 3 5 5 4 3
10 5 8 8 10 9 13 14 11 5 5 6 6 11 11 13 10 5 9 8 11 5 5 13 9 9 9 8 10 12 15 16 19 18 20 19 14 15 16 16 16 19 18 17 17 18 17 15 16 14 8 9 11 13 13 12 14 13 13 15 21 22 16 14 15 16 20 18 15 11 10 8 9 10 10 10 9 7 6 5 2 2 2 4 5 2
6 4 6 7 11 13 10 9 7 3 6 11 3 12 15 8 7 5 10 10 17 8 6 5 16 18 15 12 12 11 13 20 19 16 19 17 16 16 15 17 17 16 17 17 17 16 18 21 19 16 16 12 9 12 13 12 12 13 14 17 18 20 21 20 17 12 17 18 18 17 13 10 10 12 11 11 12 11 9 7 5 4 6 3 4 6
7 7 6 5 5 4 3 5 9 7 11 6 9 7 10 16 11 10 6 10 6 19 6 5 12 26 17 14 10 13 16 18 18 16 15 14 17 17 16 14 17 20 18 18 19 21 19 16 18 18 17 16 15 14 14 12 10 9 11 14 10 10 11 13 14 14 15 17 16 14 14 12 11 11 12 11 6 9 8 7 7 7 5 4 5 5
6 5 4 5 2 7 8 8 8 8 11 9 11 11 13 10 18 15 7 4 5 10 17 15 14 18 16 16 13 10 17 19 17 16 16 17 16 16 19 21 20 19 19 21 19 18 18 18 16 15 16 17 16 15 13 13 12 13 14 12 11 12 11 14 15 12 13 14 18 14 11 7 7 6 6 7 9 7 6 6 6 5 4 4 4 4
11 5 4 4 3 9 11 10 7 7 3 11 14 12 10 10 7 7 7 4 3 1 10 24 13 12 11 12 13 15 18 21 20 16 15 16 16 15 18 18 19 19 19 19 18 17 17 17 17 16 16 19 17 15 14 13 14 14 15 14 12 12 11 11 11 9 11 10 11 12 12 11 9 8 5 5 6 4 3 4 3 4 5 5 5 4
8 10 4 3 6 6 8 7 10 10 7 9 14 17 17 14 5 8 6 8 15 17 15 16 20 16 11 15 19 17 20 19 18 17 15 14 14 16 19 19 19 17 15 16 16 16 16 17 17 18 19 19 19 20 17 15 16 17 16 15 15 15 14 15 16 18 19 17 12 12 14 14 13 13 12 7 6 6 7 6 6 7 6 5 3 6
8 3 3 3 6 5 6 7 5 3 7 12 14 19 20 18 12 10 6 5 6 13 14 16 15 13 9 17 20 18 19 18 20 14 12 15 14 16 20 18 17 16 12 14 14 15 16 18 18 19 18 17 17 17 19 18 19 20 19 18 18 17 18 19 17 17 16 15 14 13 14 13 15 15 13 14 10 11 8 5 8 9 7 8 9 8
4 9 7 4 7 4 4 6 2 4 7 9 10 12 11 8 6 6 4 9 5 13 23 19 10 11 15 16 25 15 17 13 15 13 15 16 14 17 18 16 15 15 15 13 16 16 16 15 14 14 14 16 18 17 18 16 19 20 18 20 17 19 21 21 19 19 19 17 17 16 15 15 15 15 15 13 11 7 12 12 10 11 10 9 7 6
4 7 7 4 9 3 8 5 3 6 10 10 2 4 4 5 11 7 5 8 9 9 8 10 17 16 15 16 24 18 15 12 15 11 8 10 15 16 14 14 14 11 12 13 14 14 11 13 12 14 14 11 14 16 17 19 21 19 17 19 19 21 20 21 20 21 20 19 19 17 17 16 17 17 16 15 15 15 16 13 13 12 11 9 9 10
9 7 4 3 6 3 2 5 8 9 7 5 4 6 6 6 10 13 9 11 10 17 21 22 15 15 15 17 18 19 17 15 14 14 12 10 10 12 14 15 14 13 12 12 12 14 12 11 13 15 18 17 16 16 18 20 19 18 21 20 22 20 21 20 22 22 20 21 19 19 18 17 18 17 16 15 15 16 16 15 14 14 12 12 12 12
10 10 7 6 6 4 4 4 7 5 3 4 5 6 8 3 6 3 15 13 10 9 21 20 15 15 18 20 18 19 22 15 17 17 14 11 9 11 14 15 13 13 15 12 13 13 14 13 13 15 14 11 13 14 14 15 14 19 19 19 21 21 21 21 23 22 21 21 19 18 17 18 18 18 17 15 16 16 14 13 12 12 10 11 12 11
14 8 9 6 3 6 3 3 5 2 4 8 6 11 13 7 9 7 9 5 5 3 15 23 16 15 17 18 23 22 20 19 23 18 13 9 9 9 13 14 13 14 13 12 11 11 9 9 11 10 10 14 14 14 13 12 14 15 17 20 20 22 22 23 24 22 20 19 18 18 18 17 16 15 15 15 16 15 13 12 12 11 9 11 11 11
3 9 8 10 5 6 8 7 6 7 5 2 5 7 5 6 5 6 4 5 4 8 6 24 21 17 17 15 17 17 12 20 21 11 7 7 8 11 11 12 12 13 11 9 8 8 9 9 10 11 13 13 15 12 13 14 13 17 18 18 17 22 23 23 22 20 20 19 18 17 17 17 17 17 16 17 16 13 11 9 8 10 9 11 11 12
12 11 8 12 7 5 6 9 5 8 4 2 7 6 7 5 8 4 3 5 4 13 6 15 25 18 21 18 12 7 6 12 9 11 6 3 5 8 12 10 10 9 9 9 9 10 9 10 10 10 11 12 12 9 7 6 10 17 17 16 17 18 18 18 17 18 17 16 15 15 15 14 16 16 16 17 15 14 13 11 10 7 9 11 10 10
16 11 10 13 7 5 6 8 4 3 4 4 9 11 11 4 6 3 5 8 6 10 12 10 19 22 17 12 6 7 15 16 12 9 7 5 6 7 9 10 9 8 9 8 8 8 9 9 12 13 12 12 9 7 9 9 15 18 18 18 18 20 20 16 13 11 13 14 15 14 16 14 15 14 13 12 12 13 13 11 11 13 12 12 12 12
11 10 12 6 5 6 8 5 5 4 5 5 10 15 14 4 6 5 9 3 4 12 12 10 12 10 10 9 5 10 2 6 17 14 8 6 11 12 11 10 11 11 11 10 9 7 10 10 11 11 10 9 9 10 10 14 19 19 18 18 19 17 14 11 11 12 11 11 12 13 14 14 12 13 13 11 10 9 12 13 12 12 13 13 13 13
8 5 5 7 11 7 5 10 6 5 4 7 14 10 10 4 4 8 5 6 7 15 10 9 9 4 6 7 8 9 13 14 14 11 11 9 10 10 11 12 13 13 11 10 9 8 9 9 9 10 11 10 12 12 14 17 20 17 16 18 17 11 8 9 10 10 10 12 11 11 11 11 11 11 11 11 12 13 12 11 10 10 10 9 9 10
6 8 3 4 3 6 9 11 6 8 6 14 19 9 9 6 4 2 4 9 7 13 12 8 8 7 15 14 14 17 16 13 12 11 10 8 11 13 14 13 13 14 13 12 10 6 7 9 10 11 8 9 10 12 13 18 17 15 14 16 9 6 8 9 9 10 10 10 10 9 9 9 10 11 11 11 11 11 11 9 10 9 10 10 10 10
5 10 4 4 4 7 6 8 6 6 13 17 6 5 5 3 3 1 7 10 11 12 11 13 10 6 13 20 17 14 13 14 11 10 10 10 10 12 12 10 10 10 10 10 9 7 6 9 10 12 11 11 10 10 11 16 15 13 14 9 2 4 6 8 8 8 9 9 7 7 7 7 8 8 8 9 9 9 10 10 9 8 9 8 8 8
16 5 6 10 7 8 6 7 2 1 8 9 9 9 5 6 8 5 16 12 14 13 10 16 12 11 11 15 13 14 15 9 9 9 12 9 11 11 12 10 10 10 10 10 10 9 8 10 11 13 13 11 10 10 10 11 16 13 12 3 3 7 8 7 7 8 8 7 6 6 5 5 6 5 5 5 6 7 6 6 5 8 7 6 7 6
4 9 6 21 14 14 15 7 3 3 4 11 10 7 11 10 9 10 17 19 13 12 10 16 12 12 10 9 19 11 11 11 14 12 11 11 11 9 9 10 11 11 12 12 11 11 9 9 12 13 13 13 11 10 9 9 12 13 7 4 5 6 8 8 9 10 8 7 6 6 5 6 5 4 4 4 4 4 3 3 4 4 6 4 5 3
5 4 9 17 6 8 8 4 5 7 8 12 13 11 11 11 11 14 19 18 15 16 17 14 16 13 12 12 13 14 12 12 13 10 9 10 10 7 8 9 9 9 10 10 6 8 11 9 12 11 11 11 9 9 8 8 8 7 6 5 5 6 7 9 9 8 7 7 5 4 4 4 3 4 4 3 4 4 4 4 5 5 6 6 8 7
7 4 18 7 7 11 10 5 4 6 6 6 5 13 12 12 13 12 15 15 15 15 15 14 14 13 12 14 10 13 10 10 14 11 10 9 8 7 7 6 6 9 7 5 6 7 8 9 8 8 9 9 6 7 6 6 5 3 3 2 3 4 6 8 7 7 6 6 5 5 4 5 4 5 7 6 5 8 8 7 4 6 8 8 8 8
4 5 4 2 13 7 7 4 3 8 10 9 6 6 9 12 13 11 11 12 13 15 12 11 10 11 12 11 10 14 14 9 10 11 12 8 9 8 7 7 6 5 6 8 7 6 9 7 7 6 7 5 3 6 6 4 2 1 2 2 2 3 7 8 6 5 5 3 5 7 6 6 6 7 8 7 7 7 5 7 9 8 8 7 6 5
10 11 4 13 15 7 10 10 7 13 7 3 2 4 5 4 11 12 10 12 11 13 12 13 10 8 8 5 10 14 15 10 7 10 10 8 8 6 6 7 7 9 9 6 9 9 8 7 5 6 6 4 6 7 6 2 1 1 2 1 3 5 8 7 7 6 7 5 7 7 8 8 9 8 8 7 8 7 7 5 7 8 8 10 9 10
7 8 9 10 15 10 10 11 3 7 10 7 7 3 2 5 9 11 10 9 8 10 12 14 11 9 9 6 5 13 11 11 6 8 9 6 4 4 6 8 10 9 9 8 11 10 8 6 6 6 7 7 6 7 6 4 4 3 1 3 5 6 6 8 9 9 9 8 9 9 8 8 9 9 8 8 8 8 9 11 9 8 12 12 11 10
Wind_Speed
3 5 8 10 4 2 3 5 6 6 0 2 1 2 5 5 10 8 5 2 4 6 5 7 7 6 11 12 12 3 8 9 5 9 11 11 12 12 12 11 10 11 11 8 11 12 13 14 11 8 7 8 6 6 6 9 11 13 12 11 11 9 9 8 8 7 7 7 6 5 6 5 4 5 3 4 3 4 4 3 4 4 4 4 4 4
2 5 11 6 4 4 4 5 2 1 0 2 4 4 8 4 11 8 6 4 8 2 6 5 5 9 13 14 12 2 11 12 10 11 13 13 12 11 14 12 12 10 6 9 9 9 10 8 9 6 7 7 10 8 7 9 10 11 13 13 11 10 9 9 9 8 7 7 7 6 6 4 4 4 4 4 2 4 4 4 4 5 4 5 4 4
3 10 6 2 6 4 2 1 2 4 4 1 4 4 5 9 4 9 5 5 3 2 7 6 5 10 14 15 11 5 10 10 14 18 18 17 15 14 14 14 12 11 11 11 9 11 11 12 11 8 7 7 7 9 10 10 10 10 11 11 11 10 10 8 7 7 7 5 5 6 4 5 3 0 2 2 2 3 5 4 4 5 5 6 5 5
5 8 9 7 3 3 2 1 1 1 0 3 1 2 10 2 3 8 2 3 3 1 6 6 7 11 13 9 10 10 8 5 11 17 17 18 18 16 20 19 16 16 16 15 15 14 12 12 10 9 8 7 7 8 9 10 12 10 9 10 10 10 9 8 7 7 5 6 5 4 6 5 4 4 2 2 2 3 4 3 4 4 6 6 6 5
11 6 2 6 4 4 5 5 3 4 7 3 5 6 8 3 5 7 6 3 5 5 4 5 4 8 6 7 9 4 3 7 10 8 8 9 15 18 13 10 15 20 18 16 14 14 14 12 12 12 9 8 9 9 9 11 11 9 11 10 11 10 9 9 9 9 7 6 5 5 5 5 6 5 4 4 1 1 2 3 3 5 5 5 5 5
10 10 3 4 4 4 5 5 6 6 7 4 6 11 9 7 8 8 8 4 4 7 1 2 4 5 6 8 10 6 3 5 7 14 12 15 13 13 16 15 10 8 12 17 21 20 16 14 11 9 9 10 9 10 8 8 9 10 10 10 9 8 8 8 8 8 8 7 7 7 8 7 5 5 5 5 6 4 4 5 2 3 3 4 5 5
9 3 6 6 5 5 5 7 5 8 7 4 8 10 13 12 10 10 11 1 2 3 3 2 2 6 8 8 6 7 3 5 4 14 14 14 16 14 14 12 12 12 11 6 7 12 13 14 13 12 11 11 10 9 6 6 7 9 10 10 10 8 7 6 7 7 7 7 6 7 7 6 7 7 4 3 4 6 3 3 4 4 3 3 5 4
2 3 5 3 4 5 4 7 5 11 6 5 6 8 8 8 8 9 7 6 8 2 2 1 4 3 7 8 2 5 7 5 5 8 14 13 15 13 12 12 14 14 14 13 12 12 12 13 15 16 11 10 9 6 5 6 7 10 11 10 9 7 7 6 7 7 6 8 7 7 6 7 7 7 6 6 5 3 3 4 3 3 2 2 3 4
4 2 5 4 4 4 8 10 4 10 7 8 4 9 8 9 9 7 5 7 3 1 10 2 0 1 3 6 5 3 7 5 5 8 10 14 15 14 13 12 14 14 13 13 12 14 14 13 12 9 9 7 5 6 7 7 7 8 8 8 7 7 7 6 7 7 6 6 7 8 8 7 6 5 5 4 3 4 4 4 2 2 2 2 2 3
2 5 6 8 6 6 8 8 7 13 5 13 8 3 3 2 3 5 5 4 2 1 7 8 2 2 6 6 7 4 6 3 2 8 9 13 16 15 12 12 12 10 9 8 9 13 13 10 7 8 6 6 5 5 5 4 5 6 7 7 8 7 6 6 7 7 6 6 7 7 8 9 6 5 5 5 5 5 4 5 3 3 3 2 2 2
4 2 6 4 5 7 6 10 8 13 18 1 4 2 3 1 1 1 2 3 2 2 8 8 4 3 4 3 1 3 1 3 2 1 3 8 9 10 10 12 12 11 9 8 7 7 8 5 7 8 9 6 4 4 5 6 7 7 7 7 7 5 5 6 6 6 6 5 6 7 8 9 8 7 8 7 5 5 4 5 3 3 3 2 3 3
5 2 1 3 7 4 5 5 4 14 11 4 1 3 1 4 5 1 2 3 2 6 8 8 5 7 5 3 4 1 2 6 12 13 13 15 16 14 11 11 11 10 10 9 8 10 10 8 8 8 8 7 4 4 5 6 6 7 6 7 7 5 6 6 6 6 7 6 6 6 8 8 8 8 7 8 8 7 6 5 5 3 3 2 3 3
6 7 3 4 4 10 4 5 7 1 4 6 3 3 5 3 1 3 2 2 4 7 5 0 5 4 6 3 4 11 4 4 9 9 16 18 15 13 12 11 11 12 11 10 10 11 9 9 9 10 9 7 6 6 7 7 7 7 7 8 8 6 6 7 5 6 6 6 6 6 7 7 7 7 7 7 7 5 7 6 5 5 4 4 5 3
7 4 2 5 4 5 5 5 2 1 1 8 7 5 4 1 0 2 3 1 5 6 6 2 1 3 1 3 5 10 9 5 8 3 4 3 8 11 11 11 10 10 10 10 10 9 7 8 8 7 9 9 8 7 7 6 6 6 6 6 7 6 5 6 5 5 6 6 6 5 6 7 7 6 6 5 7 5 6 6 6 6 6 5 4 3
1 6 6 4 4 3 6 9 11 8 7 9 3 9 8 7 4 2 3 5 6 7 2 4 2 2 1 1 6 7 3 7 8 9 6 6 3 3 7 9 10 8 7 9 9 9 8 8 7 7 8 9 8 7 6 5 5 5 6 6 7 6 5 6 5 4 5 6 5 4 4 6 5 6 5 4 5 6 6 5 6 4 4 5 3 4
5 6 7 5 4 0 4 4 4 4 4 1 3 6 7 3 6 3 5 3 2 1 1 4 1 1 1 2 3 5 6 9 9 10 12 12 8 2 5 10 9 8 8 8 9 8 7 6 6 6 7 7 6 5 3 4 4 5 6 6 7 8 8 7 6 5 5 5 5 4 5 5 5 5 5 5 4 4 5 5 6 5 3 3 4 2
1 3 3 7 1 3 8 1 3 5 3 3 3 3 7 6 8 3 1 0 2 3 1 0 1 3 5 3 4 7 7 8 8 7 8 10 12 11 9 7 3 8 8 8 7 7 7 7 6 6 7 5 4 4 4 4 4 5 6 7 7 6 5 6 6 6 6 6 6 4 5 5 6 6 5 5 4 4 4 4 4 4 3 3 3 3
2 6 5 1 11 8 4 3 2 2 4 6 2 6 2 4 5 6 5 2 2 3 3 1 1 2 3 3 4 5 7 8 8 7 6 7 9 13 7 7 6 5 9 9 8 6 6 6 5 5 4 3 3 4 5 5 5 6 6 7 7 6 8 6 6 6 6 6 6 5 5 4 5 6 5 5 5 4 5 4 4 4 5 3 3 3
1 5 6 3 4 9 5 0 2 2 1 6 5 3 2 1 1 3 4 0 1 1 1 1 1 2 3 3 3 4 6 5 7 9 9 4 8 10 11 7 9 6 7 8 9 7 6 6 5 5 5 4 5 6 7 7 7 6 4 4 4 4 4 6 6 6 6 6 5 4 5 6 6 5 6 5 5 5 5 4 4 4 4 4 4 4
1 1 6 3 0 4 3 4 2 5 4 1 2 1 0 5 3 3 4 4 4 1 2 3 2 2 3 2 0 3 5 5 5 7 7 7 4 10 10 7 5 1 4 6 7 6 6 7 6 5 5 6 6 7 6 5 3 3 4 5 7 9 7 6 8 7 7 6 8 7 5 5 6 6 6 6 6 6 5 5 5 5 4 5 4 4
1 1 3 6 7 5 1 1 1 2 2 2 2 2 0 1 2 5 1 2 4 5 5 4 1 5 3 1 1 1 4 6 7 7 6 7 3 7 9 6 3 2 4 6 6 6 7 7 7 5 4 3 2 1 2 6 6 7 9 10 11 13 11 8 3 8 9 8 6 8 8 8 6 6 6 6 5 6 5 5 4 5 5 4 4 4
1 1 2 4 7 3 6 3 3 5 5 3 2 3 1 1 4 2 5 2 2 3 3 5 4 4 2 2 1 4 6 7 7 7 8 5 4 5 6 5 3 1 3 5 5 6 5 5 6 5 3 3 2 1 5 7 7 10 11 11 12 12 12 10 4 5 6 4 6 7 8 7 5 7 6 6 5 5 5 5 5 4 4 4 3 4
2 2 1 4 3 6 5 8 3 2 13 7 7 4 1 2 2 3 3 3 3 1 4 3 5 2 1 0 4 6 7 8 10 7 7 6 3 7 8 6 4 4 4 5 6 6 5 5 4 4 4 3 2 3 7 7 9 10 11 11 6 9 7 6 6 4 5 7 6 5 4 4 5 5 5 5 4 5 5 4 4 4 5 4 4 2
6 2 1 5 6 6 6 7 2 4 5 6 5 3 6 3 2 4 4 5 6 1 1 1 2 2 1 3 3 7 8 9 9 7 8 7 6 6 8 7 7 6 6 7 7 6 5 5 3 4 4 4 5 7 8 9 11 11 10 9 7 7 7 6 5 4 6 7 6 6 7 6 5 5 3 4 3 4 4 3 3 2 3 3 3 3
2 3 2 1 3 4 1 3 5 4 5 4 2 2 2 2 2 3 2 1 1 5 6 7 5 4 0 3 4 8 11 11 11 9 9 10 9 9 9 9 8 9 9 10 10 8 7 7 5 4 4 5 7 6 8 9 9 9 9 10 10 9 8 6 4 6 7 7 7 6 7 5 6 7 6 5 4 3 2 2 2 2 3 3 2 2
3 1 3 2 4 3 4 4 3 2 0 1 2 3 6 9 6 3 3 1 3 1 4 4 2 5 4 4 6 8 10 11 11 11 12 12 9 9 10 9 8 10 10 10 11 11 11 9 9 9 5 5 3 2 4 7 8 7 8 9 12 13 10 9 8 8 6 7 8 5 5 4 5 7 7 7 5 5 4 3 2 1 1 2 3 2
1 1 2 2 5 7 4 4 3 1 3 4 1 6 5 3 3 3 3 4 7 3 3 1 7 9 8 6 8 7 8 11 12 10 12 9 10 9 8 9 9 10 10 11 10 9 11 13 13 11 10 7 5 6 5 6 7 6 6 8 3 5 10 11 8 8 9 8 9 7 5 5 5 6 7 7 7 6 5 4 4 3 4 3 3 4
3 3 4 2 3 2 1 1 6 3 3 4 3 3 3 8 3 6 2 2 2 8 2 1 7 13 10 9 6 9 11 10 10 10 9 7 8 9 10 7 9 11 11 10 12 12 12 10 11 11 11 11 9 8 7 7 6 4 5 5 5 3 3 5 5 5 8 10 6 7 8 6 5 5 5 5 4 3 3 3 3 3 3 3 3 3
2 2 3 3 2 5 5 4 5 5 6 3 5 5 9 4 12 8 1 2 2 1 6 9 8 9 8 8 5 7 10 10 10 10 9 8 8 10 10 12 12 11 11 13 12 12 12 11 10 10 10 11 11 10 7 7 8 8 8 6 6 5 5 6 9 7 5 8 11 7 3 3 3 2 3 2 3 3 2 0 1 1 2 3 2 2
4 2 1 1 1 6 8 7 4 5 1 4 9 8 7 7 5 5 3 2 1 0 3 12 8 5 3 5 7 10 11 13 11 9 8 10 10 8 11 11 10 10 11 11 11 11 11 11 11 10 10 11 11 10 8 8 8 8 9 8 6 7 5 4 4 5 5 6 7 6 4 4 3 4 3 2 1 1 1 1 1 1 1 2 3 3
2 0 2 1 2 3 5 4 7 6 5 5 8 12 12 10 3 5 3 5 9 10 10 10 11 8 5 9 11 11 12 11 10 9 9 9 9 10 11 9 9 9 9 9 10 10 10 11 11 12 13 13 13 13 10 9 9 10 10 8 8 7 7 9 9 8 8 8 7 6 5 6 4 5 5 5 4 4 5 4 3 2 2 3 2 3
3 1 2 1 2 2 3 5 3 2 5 8 8 12 13 12 8 6 3 2 3 8 9 11 7 5 4 9 11 12 12 11 13 10 6 7 9 11 13 11 10 7 7 8 8 8 10 11 11 12 12 11 11 11 12 11 11 12 10 10 10 9 11 11 10 9 9 6 7 6 6 6 6 7 7 7 7 6 5 4 4 5 4 5 6 5
1 4 3 1 4 1 2 4 1 2 2 3 6 7 7 5 3 4 2 5 2 6 12 9 6 5 8 8 14 9 11 8 10 9 6 6 8 11 12 10 9 9 7 8 9 9 10 9 8 9 9 10 10 10 12 10 12 12 10 11 10 10 12 12 11 11 11 9 10 9 8 9 9 9 9 7 7 4 4 3 4 5 6 5 3 4
2 4 3 1 3 1 4 1 1 2 4 3 1 2 2 2 4 4 3 5 6 5 1 4 9 8 8 8 14 11 10 7 5 7 4 2 5 10 9 8 8 7 6 8 9 8 7 7 7 7 9 8 9 10 11 11 12 10 10 10 11 13 12 11 12 12 12 11 11 10 10 10 10 10 9 9 9 8 8 8 8 7 7 6 5 6
5 3 2 1 2 1 1 3 3 3 1 2 3 3 2 2 5 8 5 7 6 11 14 14 10 10 9 9 11 13 11 10 9 8 7 4 5 7 8 7 8 8 8 8 8 9 8 8 8 10 11 10 9 9 9 11 11 10 12 12 13 12 13 12 14 13 12 13 12 12 11 10 11 10 9 9 9 9 10 9 8 9 7 7 7 8
5 5 2 3 2 1 1 1 1 0 0 0 2 4 5 1 3 1 8 8 7 5 12 9 9 10 12 13 12 11 14 10 10 8 6 7 5 5 8 8 8 8 8 7 9 8 8 8 8 8 8 6 8 8 8 9 9 11 11 12 13 13 13 13 14 13 12 13 11 11 10 11 11 10 11 10 10 10 9 8 7 7 6 6 7 6
8 4 4 2 0 2 1 2 1 0 0 4 2 5 5 3 5 3 3 3 3 2 8 13 9 10 12 12 14 14 12 11 11 9 8 4 4 4 7 8 8 9 9 8 7 7 6 5 7 6 6 9 9 9 8 7 9 9 10 12 11 13 13 14 14 13 12 12 11 11 11 10 10 9 9 8 10 9 8 7 7 7 6 7 7 7
1 4 4 4 1 3 4 2 1 2 1 1 2 3 2 4 2 2 0 2 2 5 3 12 13 11 11 11 11 12 7 11 11 5 2 2 2 5 5 7 8 9 7 6 5 5 6 6 7 7 8 9 10 8 8 8 8 10 11 11 10 13 13 14 13 12 12 12 11 10 10 11 10 10 10 10 10 8 7 6 5 6 4 6 5 6
7 6 4 5 2 2 3 3 1 2 0 0 5 4 4 2 3 2 1 2 1 6 4 9 14 10 12 11 8 4 3 5 4 6 4 2 1 2 7 6 6 6 6 6 6 7 6 6 6 6 7 8 8 6 5 4 7 11 10 10 10 11 11 11 10 10 10 9 9 8 8 9 9 10 10 10 9 8 8 7 6 4 4 4 4 3
9 5 5 6 3 2 3 3 1 0 1 2 6 6 7 3 4 1 2 1 3 6 6 5 12 14 9 7 3 4 8 8 6 5 4 3 3 3 4 6 6 6 6 5 5 5 6 6 8 9 8 8 6 5 6 6 9 11 11 11 11 12 12 10 8 6 5 7 8 8 9 8 8 9 8 8 7 8 8 6 6 7 6 6 6 6
5 4 6 3 2 4 4 2 1 1 1 3 6 10 9 2 3 2 2 0 0 6 5 5 5 5 6 6 2 4 1 3 10 8 5 4 8 8 7 6 6 6 7 7 6 5 6 6 7 7 7 6 6 7 7 9 11 12 11 11 12 11 8 7 6 6 6 6 7 8 8 8 8 8 7 5 4 3 4 5 6 7 8 7 7 7
4 2 2 3 5 4 3 3 1 1 1 4 8 7 6 1 0 2 2 2 3 8 4 5 5 2 3 3 3 4 7 9 9 7 7 6 7 6 7 7 8 8 7 6 6 5 6 6 6 7 7 7 8 8 9 10 12 10 10 11 11 7 5 6 6 6 6 7 7 7 7 7 6 5 5 5 6 6 6 6 5 5 5 5 5 7
2 2 1 2 1 2 3 3 3 2 1 7 12 5 4 2 1 1 1 5 4 8 7 4 3 2 6 6 6 10 10 8 8 7 6 6 7 9 9 9 8 9 8 7 6 4 5 6 6 7 6 6 6 7 8 11 12 10 9 10 6 4 5 5 5 5 5 6 6 5 5 5 5 5 4 5 5 5 6 5 6 6 6 6 6 6
1 3 1 1 0 1 2 3 1 2 7 10 3 1 2 0 1 0 2 5 6 7 7 7 5 3 6 11 9 8 8 9 7 7 6 6 7 8 8 7 6 6 6 6 5 3 4 6 6 8 7 6 5 6 7 10 9 8 8 6 2 3 4 4 4 4 5 5 4 5 4 4 4 4 4 4 4 4 5 5 4 4 5 4 4 5
8 1 2 4 3 2 1 2 1 1 5 5 4 3 3 4 4 3 9 6 7 7 5 8 7 7 7 10 8 7 8 5 5 5 6 5 6 7 8 6 7 7 7 7 6 5 5 6 7 8 8 6 6 5 5 7 10 8 7 2 2 3 4 4 4 5 5 5 4 4 3 3 3 3 3 3 3 4 3 4 3 5 4 3 3 3
1 4 3 7 4 5 7 4 1 2 2 6 6 4 6 6 5 7 10 10 8 6 5 8 7 8 7 6 10 6 5 6 8 7 7 6 7 6 5 7 7 7 7 7 7 7 6 6 8 9 8 7 5 5 4 4 7 8 4 3 3 3 4 4 5 5 4 3 3 2 1 2 1 1 1 2 1 1 1 1 2 2 4 3 2 2
2 1 3 5 2 3 2 2 3 2 3 6 8 7 7 7 6 8 11 10 9 9 9 8 9 8 8 8 8 7 6 7 8 6 6 6 6 5 6 6 6 6 7 7 4 5 6 6 7 7 7 7 4 5 4 5 5 5 4 4 3 4 4 5 5 4 3 3 3 1 1 1 1 1 2 2 3 3 3 3 2 2 3 3 2 2
3 2 8 3 3 4 3 1 2 3 3 4 2 7 7 7 8 8 9 9 9 9 9 8 8 9 7 8 6 8 5 5 8 7 6 5 5 4 5 4 5 6 5 4 4 5 5 6 5 5 6 6 3 4 4 4 4 3 2 2 2 3 3 4 4 4 3 2 1 1 1 1 1 1 2 3 2 3 3 3 2 3 5 5 5 4
1 2 1 0 4 2 3 2 1 5 6 5 4 3 4 6 8 7 7 8 9 10 8 7 6 7 8 7 6 9 8 5 6 7 7 5 5 5 4 4 4 4 4 5 5 4 6 5 5 5 5 4 3 4 4 2 1 1 1 1 2 2 4 4 4 3 3 2 3 4 3 3 3 3 4 3 3 3 3 4 5 5 5 4 3 3
4 5 1 6 7 1 4 4 3 5 0 1 1 1 3 3 7 8 7 8 8 8 8 9 6 5 5 3 6 9 9 6 4 6 7 5 5 4 4 4 4 5 5 4 5 6 5 4 3 4 4 4 4 4 3 1 0 1 1 0 1 3 4 4 4 4 4 3 4 4 4 5 5 4 4 4 5 4 4 5 6 6 5 6 7 8
2 4 3 3 7 4 5 6 2 3 5 3 3 1 1 2 5 7 7 6 5 6 8 9 7 6 6 4 4 9 7 7 4 5 6 4 3 2 4 5 6 5 4 4 6 6 5 4 4 4 5 4 3 4 4 3 3 2 1 2 3 4 4 4 5 5 6 5 5 5 5 5 6 5 5 5 5 5 6 6 5 7 10 10 9 9
Wind_Direction
126 192 217 221 219 175 203 186 207 216 251 299 346 251 256 268 282 271 271 241 323 326 270 267 278 271 275 273 272 202 179 198 165 127 161 165 152 152 154 156 156 162 165 167 163 169 186 193 195 194 193 196 182 166 172 171 164 154 155 156 161 164 161 160 160 159 159 161 155 152 160 159 165 172 177 182 169 149 159 162 156 153 149 143 134 143
112 219 239 218 170 172 203 201 187 296 41 240 277 295 289 263 266 275 288 318 290 207 284 288 301 281 268 273 269 188 151 188 172 155 172 165 157 156 153 152 159 157 151 156 164 176 195 206 207 195 195 184 174 171 162 166 175 162 156 161 158 160 168 171 169 160 165 173 175 163 167 154 160 160 178 194 185 172 162 166 163 152 153 148 147 149
204 226 246 189 198 187 225 169 171 198 251 232 217 264 297 269 284 284 272 248 267 125 266 287 289 278 275 272 273 228 179 194 180 166 177 160 153 158 155 157 156 154 160 167 169 177 196 202 203 197 191 191 182 167 171 163 166 165 161 161 158 165 169 165 161 156 168 167 150 151 153 151 133 168 196 181 169 162 161 168 159 148 151 156 156 154
277 264 243 228 146 168 268 231 219 226 121 217 258 233 248 294 338 303 293 349 333 355 289 295 290 282 281 291 272 254 191 171 191 178 173 159 155 159 166 170 163 160 162 173 177 183 193 197 197 193 190 185 176 174 174 170 166 165 165 162 163 167 164 153 158 164 169 157 145 129 142 135 135 162 134 89 99 128 118 138 147 152 159 159 154 153
226 243 171 162 167 165 227 244 210 222 261 223 195 223 250 274 249 206 281 334 309 290 212 285 316 302 303 324 312 356 118 136 178 174 156 150 163 164 158 155 166 164 166 167 174 183 191 194 195 193 183 179 185 186 183 175 171 167 167 166 167 167 163 161 164 162 153 139 115 104 96 105 86 74 89 103 65 100 141 137 152 164 157 154 149 149
255 252 103 119 172 180 201 261 230 180 244 283 224 207 224 227 249 263 267 315 356 311 278 163 10 302 279 290 267 279 78 139 175 150 152 153 156 162 172 169 167 180 173 166 173 181 189 192 186 181 183 191 193 191 188 183 170 157 160 164 167 165 165 161 158 157 155 157 147 141 144 149 143 137 138 160 173 168 165 189 166 133 147 147 143 146
223 226 159 201 180 193 193 221 224 158 219 242 264 195 212 221 225 246 262 132 270 236 280 78 83 277 312 320 315 340 83 142 162 155 154 153 163 170 170 163 167 167 175 182 148 166 183 189 185 186 189 193 195 189 170 176 171 162 160 166 168 164 157 153 157 162 154 153 155 158 156 153 154 152 186 171 166 167 174 143 160 156 140 142 139 144
172 182 189 187 171 186 200 251 214 159 167 245 229 165 197 209 222 234 230 186 238 274 288 57 130 211 306 294 282 341 74 92 128 158 158 163 165 172 164 163 167 173 175 173 175 171 186 185 186 189 186 189 193 168 162 173 171 169 167 164 160 154 154 159 156 167 166 162 162 151 149 145 144 164 171 165 167 143 141 139 139 120 118 116 129 144
171 211 183 206 194 176 215 224 184 153 154 230 205 173 195 206 219 227 194 212 226 236 279 357 320 72 263 263 333 17 74 83 132 167 169 170 172 165 163 165 171 177 176 174 166 178 189 191 190 183 183 183 168 164 172 175 175 169 161 153 144 149 153 154 158 163 167 165 165 154 143 142 159 159 159 146 132 133 132 124 92 95 86 85 87 138
268 191 198 184 155 214 232 240 157 170 192 262 243 143 212 188 199 180 186 171 278 219 272 273 180 208 281 275 354 348 64 11 226 185 183 179 171 168 166 165 168 172 173 168 171 184 190 191 182 180 174 169 169 163 166 162 161 162 156 154 150 152 154 154 153 160 158 165 155 145 150 152 154 146 138 139 136 137 141 130 118 109 102 99 89 81
237 353 155 131 191 215 228 238 179 181 211 110 93 175 244 58 355 23 94 116 71 261 249 243 193 161 270 276 203 57 1 246 208 294 201 182 180 181 175 163 163 168 165 159 173 192 182 164 178 173 185 173 135 153 160 159 163 160 156 147 142 147 144 143 147 148 151 157 150 146 155 156 154 158 146 136 133 130 121 129 126 123 123 103 108 103
316 268 215 229 204 225 195 271 184 193 218 200 229 176 284 288 10 48 335 39 147 267 262 250 187 164 186 285 313 226 266 245 188 186 185 183 183 179 171 168 165 158 158 161 165 180 170 166 173 173 184 175 161 152 165 164 158 156 150 140 139 143 141 137 143 142 148 152 145 148 155 156 155 153 151 148 151 153 143 138 128 121 98 70 70 78
286 251 224 268 203 197 228 253 295 79 156 154 119 67 150 261 33 260 11 269 206 215 245 2 140 100 230 214 319 323 337 297 227 209 187 183 182 171 163 169 165 158 154 154 161 170 175 179 173 173 178 174 174 181 178 173 163 154 150 150 148 148 144 142 144 147 150 145 147 152 154 155 151 147 145 146 144 146 135 134 126 126 122 111 86 69
273 284 322 276 317 206 150 214 281 292 148 135 162 148 116 174 17 236 271 210 302 277 255 308 301 228 248 292 343 330 331 291 220 236 346 294 188 165 158 157 160 157 155 155 161 170 174 178 180 170 175 183 183 185 180 174 163 156 151 150 147 147 147 139 141 144 144 145 146 152 153 149 144 138 135 141 138 137 134 136 137 139 144 137 139 138
324 339 288 181 264 246 167 195 192 190 170 196 144 150 175 144 159 215 220 229 219 208 287 296 129 242 139 252 326 336 353 37 67 79 70 60 47 108 141 143 145 147 136 152 157 166 179 185 171 167 178 189 192 183 170 171 164 147 149 149 145 142 149 144 148 134 136 138 139 144 140 133 126 125 115 122 131 135 127 125 122 122 126 126 138 132
200 207 251 215 231 348 277 236 155 117 124 227 159 84 87 223 145 190 202 176 254 276 14 356 214 244 206 262 303 13 40 51 57 65 77 60 27 23 148 154 151 139 136 135 143 152 166 168 162 165 177 189 191 182 157 164 164 157 157 153 155 156 159 156 147 139 138 133 127 130 128 123 116 110 108 102 99 102 119 124 122 126 114 114 121 96
17 266 268 313 327 205 248 155 237 135 209 247 116 181 208 172 119 80 15 183 111 38 235 210 342 310 313 322 351 4 38 48 51 53 75 83 72 35 0 341 107 126 118 124 127 149 153 152 165 169 172 175 173 164 162 157 160 160 155 155 157 153 151 151 147 139 133 128 122 120 119 121 116 115 118 121 113 107 93 105 113 121 124 108 106 115
191 255 284 37 306 293 216 235 227 242 150 95 147 240 108 86 116 132 211 349 58 191 249 44 175 307 43 256 334 359 40 38 47 45 62 76 94 94 37 1 344 74 106 114 123 121 139 142 149 146 135 125 136 145 150 165 166 169 167 161 155 151 154 149 135 127 126 123 118 121 113 109 116 120 117 124 124 112 104 91 100 108 114 129 137 124
144 326 299 277 247 273 342 113 348 322 35 176 202 179 120 232 214 320 95 195 228 255 263 354 329 262 157 253 353 25 26 35 48 17 348 29 86 84 89 35 9 46 73 101 119 116 119 133 130 130 123 130 153 160 170 171 173 163 153 137 130 135 126 125 116 105 97 111 125 131 139 135 125 128 127 123 120 119 119 126 131 138 139 128 127 123
36 222 300 296 178 305 331 58 269 293 324 27 127 82 257 105 158 145 202 182 116 207 65 289 56 245 218 214 218 333 38 33 43 60 350 322 92 113 117 135 169 177 107 105 102 106 108 121 131 126 130 152 170 175 176 160 120 101 79 76 67 57 54 72 94 104 110 133 140 142 141 136 140 143 137 136 133 132 143 150 150 146 141 151 132 134
349 93 249 281 310 331 322 351 190 180 122 339 94 288 201 41 211 110 82 117 193 172 174 155 293 278 271 242 310 270 71 61 35 29 57 335 360 112 116 119 105 68 118 117 111 110 119 126 131 138 138 142 181 216 57 55 65 71 72 70 77 81 62 32 87 137 148 148 152 147 149 149 145 135 131 130 138 141 151 155 156 161 154 129 140 142
50 11 222 312 8 323 251 252 195 140 119 122 153 71 223 122 143 198 263 14 91 101 186 130 227 273 273 336 17 85 93 72 52 39 29 35 360 56 70 87 101 345 79 103 115 109 101 99 103 99 110 129 153 111 62 55 56 73 89 86 90 110 140 161 176 138 121 112 139 153 149 144 135 134 137 139 143 144 152 156 161 155 136 145 152 141
140 163 78 297 234 252 258 286 6 283 109 113 96 12 276 171 99 112 192 257 29 82 110 140 112 277 250 304 49 75 94 88 63 42 45 21 34 77 81 77 55 56 73 65 77 79 73 70 81 105 120 136 146 83 75 74 77 87 89 94 131 136 136 106 101 79 85 105 103 84 73 89 104 119 130 132 142 148 154 155 152 151 142 141 139 114
92 41 27 296 304 289 293 282 314 274 100 47 14 43 39 2 256 193 175 182 145 133 68 14 78 255 311 79 75 97 95 89 70 60 74 39 2 50 69 69 65 63 51 60 56 59 56 67 74 96 101 85 64 79 90 94 103 119 133 139 117 92 72 66 74 80 96 92 73 81 86 88 86 82 85 112 121 142 143 137 132 117 120 121 115 123
73 286 130 344 3 342 345 338 331 330 47 91 72 352 346 323 6 252 99 86 111 215 165 132 201 246 304 74 88 104 103 96 91 73 61 58 20 19 37 42 38 42 43 42 42 43 46 45 46 66 74 92 94 110 137 126 124 137 145 138 127 128 125 123 146 130 115 98 86 84 99 96 99 100 93 87 76 64 48 53 70 78 108 107 105 99
105 191 107 153 180 187 205 214 244 281 254 156 112 3 36 27 354 358 195 77 171 238 112 118 168 257 119 104 95 96 100 88 77 76 66 51 46 36 16 25 37 45 44 46 43 39 38 28 22 22 45 94 115 127 73 89 112 134 145 153 151 143 138 145 158 156 139 127 112 113 106 114 119 122 128 128 123 132 129 109 91 107 110 131 135 102
106 70 84 154 157 186 202 227 254 148 4 73 244 57 13 11 39 120 101 115 193 200 124 219 163 148 139 142 126 100 92 103 95 77 81 80 74 65 55 31 34 45 43 42 46 42 42 34 27 23 20 27 46 50 62 96 110 132 143 131 126 151 153 157 150 144 153 148 145 144 158 169 160 149 144 145 153 153 135 138 146 160 173 157 148 138
59 63 11 69 106 157 230 67 334 31 98 3 9 346 38 38 27 69 66 249 275 108 251 64 179 144 163 151 142 108 101 92 92 95 97 91 88 90 72 59 48 44 42 42 40 36 40 32 28 22 25 25 26 46 52 65 70 78 88 111 128 123 113 114 108 138 155 151 153 173 178 173 164 152 143 144 127 112 123 129 151 180 154 140 149 150
117 106 328 13 13 20 23 26 37 51 60 67 34 10 25 7 52 52 310 256 33 133 202 165 166 144 141 154 138 112 118 108 99 95 95 104 96 87 88 75 61 49 42 44 39 35 34 34 23 13 21 27 27 36 40 69 75 73 74 70 82 96 105 127 147 174 172 162 166 171 149 116 98 89 103 99 120 140 116 61 246 179 139 150 174 174
91 75 284 312 12 35 9 17 30 70 44 36 19 6 358 23 73 95 48 356 126 50 139 135 125 103 97 108 89 89 96 98 94 98 103 95 91 93 86 78 70 61 56 52 44 38 35 31 25 22 24 19 25 22 39 60 74 78 87 90 84 88 86 103 91 85 68 67 62 58 62 67 78 99 100 101 116 109 114 64 341 319 232 207 206 211
101 268 105 262 87 26 16 12 42 53 66 51 3 8 6 354 49 51 82 40 67 69 96 106 102 76 36 91 94 89 93 97 92 88 95 104 105 96 85 77 72 70 63 56 49 41 38 33 27 29 30 26 25 25 21 40 59 66 69 73 81 80 85 86 88 86 96 99 104 103 101 96 82 74 73 68 57 45 46 43 42 47 35 23 349 299
61 149 89 74 71 329 14 13 339 10 75 74 24 4 358 356 15 350 357 297 124 135 120 109 107 119 111 96 92 94 90 88 101 93 74 91 97 96 91 85 75 56 55 57 52 47 45 38 34 33 33 25 21 22 29 33 48 57 59 61 63 63 64 64 62 63 65 61 72 75 84 80 74 66 59 67 66 67 45 44 54 51 38 35 30 8
107 127 97 83 85 280 309 351 338 351 21 5 1 329 321 296 269 299 344 31 30 139 136 156 171 129 143 131 103 83 87 83 81 70 66 84 87 91 92 91 84 69 52 51 54 52 50 45 34 37 32 34 30 28 27 32 49 48 49 58 60 68 67 66 66 66 64 55 63 65 66 66 66 67 61 51 55 67 91 61 43 28 27 21 13 39
74 97 91 353 116 183 326 116 205 101 174 235 309 308 274 303 302 344 5 359 9 50 106 74 111 125 125 114 108 109 93 81 77 99 88 44 107 95 92 95 90 81 62 58 54 53 54 54 46 42 44 40 40 41 45 44 51 52 51 57 56 58 57 63 60 62 57 51 48 53 59 66 72 69 66 68 63 58 60 53 40 28 20 14 22 42
125 101 114 113 96 65 330 91 113 174 176 153 205 310 297 316 51 99 60 39 73 100 101 101 110 113 100 90 96 98 89 71 39 52 51 42 71 87 97 92 89 83 74 62 54 49 50 48 56 57 48 41 40 43 44 50 51 53 54 52 57 54 58 57 59 55 54 53 40 39 43 50 53 55 62 63 64 62 53 53 42 34 21 25 29 33
135 124 148 54 103 66 34 15 126 169 178 230 180 0 350 352 19 328 57 30 15 78 103 85 94 101 105 103 95 94 92 89 78 52 42 13 18 85 97 90 82 76 72 66 69 56 51 42 41 52 59 51 42 41 42 46 47 54 52 51 55 55 53 56 60 57 53 53 49 47 48 52 51 45 43 48 53 54 50 45 43 37 17 30 29 25
133 95 104 81 336 152 156 57 131 20 317 14 18 5 9 355 346 1 69 10 21 5 119 122 108 105 107 112 115 112 109 96 76 47 9 24 39 50 93 98 92 82 81 68 62 57 44 40 42 39 51 58 55 47 40 40 55 63 62 59 55 57 54 49 49 49 47 46 42 40 36 40 48 46 46 44 51 48 44 40 34 30 24 39 30 27
69 137 204 105 298 115 138 81 2 21 108 14 213 261 272 232 222 187 35 62 30 81 95 124 124 128 118 125 133 140 145 81 68 49 344 349 41 93 84 90 89 91 81 78 62 62 51 47 46 40 52 57 57 41 39 42 52 58 55 56 55 58 56 54 49 45 44 43 40 41 41 40 38 40 38 40 41 38 35 33 34 31 22 44 31 27
34 65 106 114 142 65 54 113 149 153 253 229 297 287 261 248 208 156 74 48 128 141 138 139 127 141 137 144 163 195 135 87 120 153 189 193 140 94 99 90 94 96 92 80 74 67 60 58 64 61 59 61 60 48 61 58 57 60 57 54 56 62 63 62 61 54 47 42 45 42 48 48 46 43 37 39 33 31 28 23 22 6 19 33 39 35
36 6 15 60 43 55 131 82 87 73 119 325 317 310 305 230 165 126 85 246 148 154 148 163 148 146 149 130 136 83 103 119 151 196 183 161 128 105 90 95 87 86 81 83 72 70 66 60 60 53 52 53 51 44 51 63 70 68 66 61 61 60 58 57 61 68 74 69 60 55 49 44 44 46 41 33 32 34 29 12 19 16 17 18 24 25
2 357 38 78 90 50 74 96 19 333 296 336 318 316 313 240 158 79 199 273 36 130 142 135 143 131 126 137 151 103 300 137 141 142 136 126 97 80 72 72 80 84 88 85 86 82 69 60 64 65 58 50 43 43 52 66 71 69 67 67 64 59 57 58 57 54 50 49 49 50 56 53 48 47 44 41 38 29 36 32 29 23 22 19 14 24
6 49 344 59 26 48 7 84 171 219 236 322 318 310 283 346 44 228 254 268 164 115 117 127 122 81 114 144 141 112 108 96 106 111 111 104 100 96 88 83 77 74 70 69 65 72 76 66 66 62 54 49 57 66 72 73 73 70 68 67 66 61 59 59 57 57 53 51 49 47 45 45 43 47 45 35 31 35 28 16 23 32 31 29 32 30
321 81 25 41 336 46 39 51 36 44 260 13 321 327 20 86 227 272 307 24 72 105 104 73 84 115 119 83 87 103 103 101 106 105 100 97 94 92 86 79 78 77 69 64 57 42 76 70 61 59 58 53 68 80 82 83 82 79 75 74 73 71 69 66 64 62 60 56 53 50 50 50 50 44 42 38 37 44 37 18 23 20 21 20 17 22
13 88 34 54 348 121 42 56 123 259 291 322 345 121 333 309 252 222 97 61 40 80 91 91 50 55 96 107 105 92 96 104 90 95 91 92 95 89 87 90 86 78 73 69 71 63 83 82 74 69 61 67 72 81 90 92 90 86 84 85 110 94 82 73 69 66 63 58 55 52 47 47 46 45 40 39 37 37 33 21 18 21 23 20 24 21
331 95 177 122 317 103 152 184 266 322 296 324 19 61 62 28 42 69 90 81 74 46 71 89 77 61 78 92 80 96 97 81 94 88 93 96 92 88 86 84 86 85 78 68 54 48 58 72 83 79 67 58 68 75 84 97 101 97 91 107 123 94 89 85 74 68 62 59 55 53 48 43 42 38 34 30 39 40 27 12 14 13 357 11 12 19
126 92 65 70 60 76 58 58 27 335 4 49 34 30 59 60 46 70 84 83 65 70 59 93 88 85 81 92 108 79 85 108 96 89 86 80 81 74 73 63 54 58 58 54 45 46 70 82 82 81 78 60 58 75 78 84 98 98 122 147 129 117 109 99 85 75 76 78 78 66 69 64 22 24 25 17 22 39 47 38 17 9 341 358 350 353
304 58 59 102 190 54 21 338 15 31 41 66 72 53 52 57 69 85 87 91 101 98 89 82 93 87 87 85 87 102 104 100 93 82 80 75 68 61 59 62 50 50 55 50 32 53 59 79 79 83 84 75 54 73 76 81 80 111 132 119 125 113 106 96 97 99 104 116 131 140 121 107 47 5 354 359 351 355 356 353 5 355 340 340 330 328
29 77 75 92 65 98 176 223 331 342 354 355 46 88 75 73 71 69 90 100 100 95 97 102 92 82 84 85 94 98 93 96 101 93 84 83 84 76 71 67 56 44 29 45 39 73 71 73 89 84 79 77 66 79 86 88 96 107 120 136 131 119 93 84 90 100 108 103 107 116 115 57 19 27 2 352 4 357 351 345 352 349 328 321 315 320
256 38 74 169 87 26 35 13 34 50 25 7 14 70 102 110 102 95 95 97 100 96 91 75 84 115 113 126 119 107 93 76 105 112 106 102 94 89 90 82 65 60 38 30 19 62 109 115 100 96 86 78 80 95 82 92 117 174 181 182 170 122 76 68 65 67 60 33 26 19 21 17 10 9 5 355 354 347 331 331 337 328 310 285 245 242
52 62 63 73 77 105 174 197 168 93 65 297 5 33 49 72 102 99 92 88 95 102 102 96 66 54 80 98 117 113 114 115 110 108 109 114 118 119 98 80 68 58 45 44 62 63 63 55 71 82 82 51 34 56 67 57 211 259 254 223 93 66 55 47 43 37 30 23 16 10 13 8 5 2 359 357 351 354 342 326 322 309 298 293 299 294
111 186 122 133 152 216 238 207 175 147 147 206 203 270 350 49 89 93 95 100 96 106 115 108 99 79 77 56 81 108 115 122 131 113 105 109 110 105 108 99 87 73 61 56 64 48 60 54 56 58 43 15 17 48 37 10 332 308 4 58 44 45 33 34 29 22 12 12 4 2 2 5 358 355 354 350 356 354 347 334 327 311 305 297 288 289